Tracking 19969 objects as of 13-Nov-2019
Live streaming from Space Station
objects crossing your sky now
Track the group of recently launched Starlink satellites

NOAA 16 DEB

Track NOAA 16 DEB now!
10-day predictions


NORAD ID: 41253
Int'l Code: 2000-055FD
Perigee: 761.9 km
Apogee: 855.5 km
Inclination: 99.0 °
Period: 100.9 minutes
Semi major axis: 7179 km
RCS: Unknown
Launch date: September 21, 2000
Source: United States (US)
Launch site: AIR FORCE WESTERN TEST RANGE (AFWTR)

Note: This is SATELLITE DEBRIS
aabbcc
Your satellite tracking list
Your tracking list is empty




NASA's NSSDC Master Catalog

Two Line Element Set (TLE):
1 41253U 00055FD  19315.57204405 +.00001084 +00000-0 +45431-3 0  9994
2 41253 099.0019 077.6776 0065181 287.9315 071.4765 14.27062560200466
Source of the keplerian elements: AFSPC